[[{"header":{"parameterUnit":"m.s-1","parameterCategory":1,"la1":30.2992,"la2":30.254,"lo1":-89.0895,"lo2":-89.0443,"dy":0.0025,"dx":0.0025,"nx":19,"ny":19,"refTime":"2026-05-03T09:00:00:Z","depth":0,"parameterNumber":2,"parameterNumberName":"U-component_of_WINDS"},"data":[0,0,0,-0.4763,-0.4765,-0.4846,-0.4846,-0.4966,-0.4967,0,0,0,0,0,0,0,0,0,0,0,-0.4746,-0.4747,-0.4763,-0.4765,-0.4846,-0.4846,-0.4966,-0.4967,0,0,0,0,0,0,0,0,0,0,0,-0.4746,-0.4747,-0.4748,-0.4765,-0.4846,-0.4846,-0.4966,-0.4899,0,0,0,0,0,0,0,0,0,0,-0.4818,-0.481,-0.4747,-0.4749,-0.4766,-0.4846,-0.4846,-0.4896,-0.4904,-0.4936,0,-0.4964,0,-0.4967,-0.4976,-0.4977,0,0,0,-0.476,-0.4803,-0.4818,-0.4749,-0.4767,-0.4846,-0.4808,-0.49,-0.4909,-0.4946,-0.4965,-0.497,-0.4969,-0.4977,-0.4978,-0.5173,-0.5174,0,0,-0.4756,-0.4766,-0.4812,-0.4824,-0.481,-0.4806,-0.4811,-0.4905,-0.4928,-0.4966,-0.4972,-0.4971,-0.4978,-0.4979,-0.5171,-0.5173,0,0,0,-0.4746,-0.4763,-0.4775,-0.4819,-0.4832,-0.4808,-0.4814,-0.4924,-0.4927,-0.4973,-0.4973,-0.4979,-0.498,-0.517,-0.5172,-0.5238,0,0,0,-0.4743,-0.4757,-0.4773,-0.478,-0.4831,-0.4879,-0.4831,-0.4921,-0.4931,-0.4972,-0.4979,-0.4982,-0.5169,-0.5171,-0.5234,-0.5269,0,0,0,-0.4739,-0.4757,-0.477,-0.4781,-0.4815,-0.4877,-0.4885,-0.4922,-0.4931,-0.4977,-0.4982,-0.5168,-0.5171,-0.523,-0.5263,-0.5325,0,0,0,-0.4738,-0.4829,-0.4772,-0.4874,-0.4815,-0.4916,-0.4884,-0.496,-0.5007,-0.4979,-0.5169,-0.5172,-0.5228,-0.5259,-0.5321,-0.5381,-0.5406,0,0,-0.4859,-0.4844,-0.4903,-0.4854,-0.4968,-0.4903,-0.5027,-0.5062,-0.5058,-0.5135,-0.514,-0.5235,-0.5262,-0.5324,-0.5538,-0.5559,0,0,0,-0.4946,-0.4989,-0.5016,-0.506,-0.5087,-0.5114,-0.5128,-0.514,-0.5205,-0.5098,-0.5272,-0.5288,-0.5324,-0.5353,-0.537,-0.5402,-0.5184,-0.5184,-0.5184,-0.5135,-0.5123,-0.522,-0.5218,-0.5261,-0.5273,-0.5307,-0.5327,-0.5304,-0.5345,-0.5369,-0.55,-0.5534,-0.5547,-0.558,-0.5397,-0.5397,-0.5398,-0.5398,-0.5315,-0.5375,-0.5338,-0.542,-0.5407,-0.5477,-0.5492,-0.5472,-0.5537,-0.5481,-0.5512,-0.5456,-0.5569,-0.5598,-0.5403,-0.5402,-0.5401,-0.5401,-0.54,-0.5441,-0.5467,-0.5478,-0.554,-0.5589,-0.5583,-0.5645,-0.5631,-0.5618,-0.5649,-0.5674,-0.5673,-0.5673,-0.5661,-0.5661,-0.5662,-0.5662,-0.5662,-0.5663,-0.5568,-0.5578,-0.5632,-0.5666,-0.5692,-0.5724,-0.5736,-0.5762,-0.5787,-0.5772,-0.5772,-0.5747,-0.5581,-0.5541,-0.567,-0.5668,-0.5668,-0.5667,-0.5666,-0.5762,-0.5715,-0.5798,-0.5823,-0.5862,-0.5913,-0.5891,-0.5945,-0.5964,-0.5996,-0.5962,-0.584,-0.5825,-0.5812,-0.578,-0.5962,-0.5962,-0.5962,-0.5962,-0.5871,-0.5859,-0.5941,-0.5983,-0.6022,-0.6011,-0.6107,-0.6117,-0.612,-0.6131,-0.6102,-0.6056,-0.6042,-0.6036,-0.6017,-0.5987,-0.6219,-0.6219,-0.6219,-0.599,-0.5982,-0.6067,-0.6065,-0.6094,-0.612,-0.6211,-0.6263,-0.6256,-0.6229,-0.6141,-0.613,-0.6056,-0.6032,-0.6008,-0.598,-0.5924,0,0]},{"header":{"parameterUnit":"m.s-1","parameterCategory":1,"la1":30.2992,"la2":30.254,"lo1":-89.0895,"lo2":-89.0443,"dy":0.0025,"dx":0.0025,"nx":19,"ny":19,"refTime":"2026-05-03T09:00:00:Z","depth":0,"parameterNumber":3,"parameterNumberName":"V-component_of_WINDS"},"data":[0,0,0,-4.3948,-4.3951,-4.4081,-4.4082,-4.4272,-4.4274,0,0,0,0,0,0,0,0,0,0,0,-4.3926,-4.3928,-4.3948,-4.3952,-4.4081,-4.4082,-4.4271,-4.4274,0,0,0,0,0,0,0,0,0,0,0,-4.3925,-4.3928,-4.393,-4.3952,-4.4081,-4.4082,-4.4271,-4.4164,0,0,0,0,0,0,0,0,0,0,-4.4033,-4.403,-4.3927,-4.393,-4.3953,-4.4081,-4.4082,-4.4158,-4.4171,-4.4224,0,-4.4277,0,-4.4279,-4.4288,-4.4289,0,0,0,-4.3939,-4.402,-4.404,-4.393,-4.3954,-4.4081,-4.4019,-4.4165,-4.4179,-4.424,-4.428,-4.4286,-4.4282,-4.4289,-4.4291,-4.4645,-4.4647,0,0,-4.3931,-4.3958,-4.4031,-4.405,-4.4034,-4.4015,-4.4023,-4.4173,-4.4217,-4.4281,-4.429,-4.4285,-4.4291,-4.4293,-4.4643,-4.4646,0,0,0,-4.392,-4.3954,-4.397,-4.4043,-4.4065,-4.4019,-4.4029,-4.421,-4.4213,-4.4292,-4.4287,-4.4292,-4.4295,-4.464,-4.4644,-4.4783,0,0,0,-4.3915,-4.3947,-4.3967,-4.3985,-4.4063,-4.414,-4.4063,-4.4203,-4.4219,-4.4286,-4.4292,-4.4297,-4.4638,-4.4642,-4.4774,-4.4845,0,0,0,-4.3912,-4.3946,-4.3971,-4.3986,-4.4043,-4.4137,-4.4148,-4.4206,-4.4217,-4.4289,-4.4298,-4.4636,-4.4641,-4.4766,-4.4831,-4.4946,0,0,0,-4.3917,-4.4092,-4.3974,-4.4167,-4.4042,-4.4222,-4.4146,-4.4279,-4.4357,-4.4293,-4.4638,-4.4643,-4.4763,-4.4823,-4.4938,-4.5049,-4.5098,0,0,-4.4153,-4.4122,-4.4234,-4.4131,-4.4339,-4.42,-4.4428,-4.4473,-4.4454,-4.4582,-4.459,-4.4777,-4.483,-4.4945,-4.536,-4.5399,0,0,0,-4.4318,-4.4399,-4.4448,-4.4524,-4.4564,-4.4603,-4.4611,-4.4627,-4.4734,-4.4526,-4.4848,-4.4879,-4.4945,-4.4997,-4.503,-4.5085,-4.4668,-4.4668,-4.4667,-4.4692,-4.4659,-4.4842,-4.4825,-4.4899,-4.4905,-4.4962,-4.4985,-4.4929,-4.5006,-4.5044,-4.53,-4.5362,-4.5387,-4.5445,-4.5099,-4.51,-4.51,-4.51,-4.5036,-4.5146,-4.5067,-4.5216,-4.518,-4.5304,-4.5315,-4.5271,-4.5381,-4.5269,-4.5325,-4.5207,-4.5431,-4.548,-4.511,-4.5109,-4.5107,-4.5106,-4.5106,-4.5279,-4.5326,-4.5343,-4.5449,-4.5535,-4.5509,-4.5618,-4.558,-4.5545,-4.5601,-4.5637,-4.5635,-4.5628,-4.562,-4.5621,-4.5622,-4.5623,-4.5624,-4.5624,-4.5525,-4.5539,-4.5637,-4.5693,-4.5736,-4.5789,-4.5795,-4.5836,-4.5871,-4.5835,-4.5835,-4.5772,-4.5459,-4.5382,-4.5638,-4.5635,-4.5634,-4.5632,-4.5631,-4.5889,-4.58,-4.5951,-4.5995,-4.6056,-4.6143,-4.6092,-4.6179,-4.6207,-4.6262,-4.6186,-4.596,-4.5925,-4.5898,-4.5834,-4.6192,-4.6192,-4.6192,-4.6192,-4.6095,-4.6073,-4.6218,-4.629,-4.6356,-4.6325,-4.6495,-4.65,-4.6492,-4.6507,-4.6449,-4.636,-4.6334,-4.6314,-4.6279,-4.6218,-4.6666,-4.6667,-4.6667,-4.6317,-4.6299,-4.6453,-4.6444,-4.6489,-4.6528,-4.6686,-4.677,-4.6742,-4.6685,-4.6518,-4.6498,-4.6354,-4.6309,-4.6251,-4.6196,-4.6085,0,0]}]]